Regional Weather Roundup
Issued by NWS

Home | Current Version | Previous Version | Graphics & Text | Print | Product List | Glossary On
Versions: 1 2 3 4 5 6 7 8 9 10 11 12 13 14 15 16 17 18 19 20 21 22 23 24 25 26 27 28 29 30 31 32 33 34 35 36 37 38 39 40 41 42 43 44 45 46 47 48 49 50
000
ASUS43 KOAX 191110
RWRNE

WEATHER ROUNDUP FOR NEBRASKA
NATIONAL WEATHER SERVICE OMAHA NE
600 AM CDT FRI SEP 19 2014

NOTES: SATELLITE DATA IS BEING USED TO AUGMENT CLOUD COVER ABOVE
       12000 FEET.
       "FAIR" INDICATES FEW OR NO CLOUDS BELOW 12,000 FEET WITH NO
       SIGNIFICANT WEATHER AND/OR OBSTRUCTIONS TO VISIBILITY.

  * THESE STATIONS DO NOT REPORT WEATHER SUCH AS RAIN...SNOW OR FOG.

NEZ001>004-019>022-054>056-191200-
NEBRASKA PANHANDLE

CITY           SKY/WX    TMP DP  RH WIND       PRES   REMARKS
SCOTTSBLUFF    PTCLDY    56  49  77 N3        29.85R
ALLIANCE       PTCLDY    53  50  89 W5        29.84R
CHADRON        MOCLDY    66  53  63 NW8       29.83R
KIMBALL        CLEAR     65  38  37 SW15      29.89S
SIDNEY         CLEAR     61  50  67 SW12      29.89S
$$

NEZ057>060-069>072-079>082-191200-
SOUTHWEST NEBRASKA

CITY           SKY/WX    TMP DP  RH WIND       PRES   REMARKS
NORTH PLATTE   PTCLDY    57  56  96 SE3       29.86R
IMPERIAL       CLEAR     62  56  80 S10       29.87S
LEXINGTON      CLEAR     63  61  94 SE7       29.88R
MCCOOK         CLEAR     55  55 100 NE3       29.88S FOG
OGALLALA       FOG       54  54  99 CALM      29.85S VSB 1/2
$$

NEZ005>010-023>029-035>040-094-191200-
NORTH CENTRAL NEBRASKA

CITY           SKY/WX    TMP DP  RH WIND       PRES   REMARKS
VALENTINE      PTCLDY    62  61  96 SW10      29.78R
AINSWORTH      PTCLDY    61  60  98 S12       29.78S
BROKEN BOW     CLEAR     64  61  90 S10       29.85R
O`NEILL        CLOUDY    67  65  91 S17       29.81S
ORD            MOCLDY    64  62  93 SE9       29.84S
THEDFORD       PTCLDY    62  61  97 S10       29.83S FOG
$$

NEZ041-046>049-061>064-073>077-083>087-191200-
SOUTH CENTRAL NEBRASKA

CITY           SKY/WX    TMP DP  RH WIND       PRES   REMARKS
GRAND ISLAND   CLEAR     64  61  90 S14       29.88S
AURORA         CLOUDY    64  63  97 S13G18    29.89S
HASTINGS       CLEAR     63  59  87 S10       29.89S
HEBRON         CLEAR     64  61  90 S10       29.92S
HOLDREGE       CLEAR     61  58  91 S8        29.89S
KEARNEY *      CLEAR     63  59  88 S14       29.89S
YORK           PTCLDY    64  63  94 S12       29.90S
$$

NEZ011>018-030>034-042>045-191200-
NORTHEAST NEBRASKA

CITY           SKY/WX    TMP DP  RH WIND       PRES   REMARKS
NORFOLK        CLOUDY    65  63  93 S13       29.86F
ALBION         CLOUDY    64  62  93 S10       29.87S
BLAIR          CLOUDY    63  61  91 S12       29.93S FOG
COLUMBUS *     CLOUDY    64  61  88 S8        29.90S
FREMONT        CLOUDY    64  61  91 SE10G16   29.92F FOG
TEKAMAH        CLOUDY    64  61  90 S14       29.92S
WAYNE          CLOUDY    65  62  91 S15       29.88S
$$

NEZ050>053-065>068-078-088>093-191200-
SOUTHEAST NEBRASKA

CITY           SKY/WX    TMP DP  RH WIND       PRES   REMARKS
LINCOLN        CLEAR     63  61  93 S10       29.92F
OMAHA EPPLEY   CLOUDY    63  60  90 S15       29.94F FOG
BEATRICE       PTCLDY    62  61  96 S10       29.93F
FALLS CITY     CLOUDY    62  62 100 SE8       29.98R FOG
NEBRASKA CITY  CLOUDY    61  61  98 S9        29.96F FOG
PLATTSMOUTH    CLOUDY    61  59  93 SE8       29.95F FOG
$$

NEZ044-045-051>053-067-191200-
OMAHA AREA

CITY           SKY/WX    TMP DP  RH WIND       PRES   REMARKS
OMAHA EPPLEY   CLOUDY    63  60  90 S15       29.94F FOG
BLAIR          CLOUDY    63  61  91 S12       29.93S FOG
FREMONT        CLOUDY    64  61  91 SE10G16   29.92F FOG
MILLARD        CLOUDY    64  61  91 SE9       29.94S FOG
OFFUTT AFB     CLOUDY    63  63 100 SE10      29.94F
PLATTSMOUTH    CLOUDY    61  59  93 SE8       29.95F FOG
WAHOO          CLOUDY    63  60  90 S9        29.92F FOG
$$


USA.gov is the U.S. government's official web portal to all federal, state and local government web resources and services.